Weather History for Arcata, CA

Change the Weather History Date:

Monday, June 3, 2013

  Actual Average Record
Temperature  
Mean Temperature 56 °F -  
Max Temperature 64 °F 59 °F 66 °F (2003)
Min Temperature 48 °F 45 °F 39 °F (2001)
Degree Days  
Heating Degree Days 9    
Growing Degree Days 6 (Base 50)    
Moisture  
Dew Point 49 °F    
Average Humidity 92    
Maximum Humidity 100    
Minimum Humidity 63    
Precipitation  
Precipitation 0.00 in - - ()
Sea Level Pressure  
Sea Level Pressure 29.86 in    
Wind  
Wind Speed 2 mph (SSW)    
Max Wind Speed 9 mph    
Max Gust Speed -    
Visibility 5 miles    
Events      
Averages and records for this station are not official NWS values.
T = Trace of Precipitation, MM = Missing Value Source: NWS Daily Summary

Daily Weather History Graph

Daily Weather History Graph

Search for Another Location

Airport:

Trip Planner

Search our weather history database for the weather conditions in past years. The results will help you decide how hot, cold, wet, or windy it might be!

Date:

Astronomy

Jun. 03, 2013 Rise Set
Actual Time 5:45 AM PDT 8:43 PM PDT
Civil Twilight 5:12 AM PDT 9:17 PM PDT
Nautical Twilight 4:30 AM PDT 9:58 PM PDT
Astronomical Twilight 3:42 AM PDT 10:47 PM PDT
Moon 2:48 AM PDT (6/3) 4:18 PM PDT (6/3)
Length of Visible Light 16h 04m
Length of Day
14h 58m
Waning Crescent, 21% of the Moon is Illuminated
Jun 3
Waning Crescent
Jun 8
New
Jun 16
First Quarter
Jun 23
Full
Jun 29
Last Quarter

Hourly Weather History & Observations

Time (PDT) Temp. Dew Point Humidity Pressure Visibility Wind Dir Wind Speed Gust Speed Precip Events Conditions
12:16 AM 50.0 °F 48.2 °F 94% 29.86 in 7.0 mi Calm Calm - N/A   Overcast
12:33 AM 50.0 °F 48.2 °F 94% 29.86 in 7.0 mi Calm Calm - N/A   Overcast
12:53 AM 48.0 °F 46.9 °F 96% 29.87 in 8.0 mi Calm Calm - N/A   Overcast
1:53 AM 51.1 °F 50.0 °F 96% 29.87 in 6.0 mi SE 5.8 mph - N/A   Overcast
2:32 AM 50.0 °F 50.0 °F 100% 29.84 in 4.0 mi Calm Calm - N/A   Overcast
2:53 AM 50.0 °F 50.0 °F 100% 29.86 in 3.0 mi Calm Calm - N/A   Overcast
3:45 AM 50.0 °F 50.0 °F 100% 29.84 in 2.5 mi Calm Calm - N/A   Overcast
3:53 AM 50.0 °F 50.0 °F 100% 29.86 in 2.0 mi Calm Calm - N/A   Overcast
4:11 AM 48.2 °F 48.2 °F 100% 29.84 in 3.0 mi Calm Calm - N/A   Overcast
4:32 AM 50.0 °F 50.0 °F 100% 29.84 in 2.5 mi Calm Calm - N/A   Overcast
4:53 AM 50.0 °F 48.9 °F 96% 29.86 in 2.5 mi ESE 3.5 mph - N/A   Overcast
5:26 AM 48.2 °F 48.2 °F 100% 29.84 in 1.2 mi Calm Calm - N/A   Overcast
5:46 AM 48.2 °F 48.2 °F 100% 29.84 in 3.0 mi Calm Calm - N/A   Overcast
5:53 AM 48.9 °F 48.9 °F 100% 29.85 in 4.0 mi Calm Calm - N/A   Overcast
6:05 AM 48.2 °F 48.2 °F 100% 29.84 in 2.0 mi Calm Calm - N/A   Overcast
6:29 AM 48.2 °F 48.2 °F 100% 29.84 in 1.0 mi Calm Calm - N/A   Overcast
6:44 AM 48.2 °F 48.2 °F 100% 29.84 in 0.8 mi Calm Calm - N/A   Overcast
6:53 AM 48.9 °F 48.9 °F 100% 29.86 in 0.8 mi Calm Calm - N/A   Overcast
7:23 AM 48.2 °F 48.2 °F 100% 29.84 in 2.5 mi Calm Calm - N/A   Overcast
7:31 AM 48.2 °F 48.2 °F 100% 29.85 in 6.0 mi Calm Calm - N/A   Overcast
7:53 AM 48.9 °F 48.9 °F 100% 29.87 in 7.0 mi Calm Calm - N/A   Overcast
8:44 AM 51.8 °F 50.0 °F 94% 29.85 in 1.8 mi WNW 3.5 mph - N/A   Overcast
8:53 AM 51.1 °F 50.0 °F 96% 29.87 in 1.5 mi WNW 3.5 mph - N/A   Overcast
9:32 AM 51.8 °F 51.8 °F 100% 29.86 in 2.5 mi West 3.5 mph - N/A   Overcast
9:53 AM 51.1 °F 50.0 °F 96% 29.88 in 2.5 mi WNW 4.6 mph - N/A   Overcast
10:05 AM 53.6 °F 51.8 °F 94% 29.86 in 3.0 mi West 4.6 mph - N/A   Overcast
10:32 AM 51.8 °F 51.8 °F 100% 29.86 in 1.8 mi WNW 4.6 mph - N/A   Overcast
10:48 AM 51.8 °F 51.8 °F 100% 29.86 in 3.0 mi West 3.5 mph - N/A   Overcast
10:53 AM 53.1 °F 51.1 °F 93% 29.87 in 3.0 mi Calm Calm - N/A   Overcast
11:53 AM 54.0 °F 51.1 °F 90% 29.88 in 7.0 mi WSW 5.8 mph - N/A   Mostly Cloudy
12:02 PM 53.6 °F 51.8 °F 94% 29.86 in 7.0 mi WSW 4.6 mph - N/A   Partly Cloudy
12:53 PM 57.9 °F 51.1 °F 78% 29.86 in 8.0 mi SSW 6.9 mph - N/A   Clear
1:53 PM 61.0 °F 51.1 °F 70% 29.86 in 7.0 mi WSW 5.8 mph - N/A   Clear
2:53 PM 63.0 °F 52.0 °F 67% 29.86 in 8.0 mi SW 6.9 mph - N/A   Clear
3:53 PM 64.0 °F 51.1 °F 63% 29.85 in 9.0 mi South 9.2 mph - N/A   Clear
4:53 PM 61.0 °F 50.0 °F 67% 29.86 in 7.0 mi Calm Calm - N/A   Clear
5:53 PM 59.0 °F 48.9 °F 69% 29.86 in 7.0 mi SW 6.9 mph - N/A   Clear
6:53 PM 55.0 °F 48.9 °F 80% 29.87 in 6.0 mi SSW 5.8 mph - N/A   Haze
7:53 PM 54.0 °F 48.9 °F 83% 29.87 in 6.0 mi South 8.1 mph - N/A   Haze
8:53 PM 51.1 °F 48.0 °F 89% 29.87 in 6.0 mi SSE 6.9 mph - N/A   Clear
9:53 PM 51.1 °F 48.0 °F 89% 29.88 in 7.0 mi SE 3.5 mph - N/A   Scattered Clouds
10:05 PM 50.0 °F 48.2 °F 94% 29.86 in 7.0 mi SE 3.5 mph - N/A   Mostly Cloudy
10:53 PM 50.0 °F 48.0 °F 93% 29.88 in 6.0 mi SE 3.5 mph - N/A   Overcast
11:25 PM 50.0 °F 48.2 °F 94% 29.86 in 7.0 mi SSE 3.5 mph - N/A   Partly Cloudy
11:53 PM 50.0 °F 48.0 °F 93% 29.88 in 7.0 mi SSE 4.6 mph - N/A   Clear